Flag for Norway Weather past 2 weeks in Hommelvik, Norway

Now
39 °F

Overcast.


Feels Like: 37 °F
Forecast: 37 / 42 °F
Wind: 3 mph from Southeast

Location: Trondheim / Vaernes

Current Time: Mar 5, 2015 at 1:45:30 PM

Latest Report: Mar 5, 2015 at 1:00 PM


Visibility: 31 mi

Pressure: 30.00 "Hg

Humidity: 44%

Dew point: 19 °F

Location of HommelvikLocation

Historic Weather in Hommelvik — Graph

°F

Hommelvik temperature yesterday

Maximum temperature yesterday: 40 °F (at 4:00 PM)
Minimum temperature yesterday: 29 °F (at 7:00 AM)
Average temperature yesterday: 34 °F

Past Weeks' High & Low Weather Summary

 TemperatureHumidityPressure
High48 °F (Feb 19, 2:00 PM)98% (Feb 19, 1:00 AM)30.16 "Hg (Feb 19, 1:00 AM)
Low28 °F (Mar 3, 7:00 AM)39% (Feb 27, 4:00 PM)28.76 "Hg (Mar 1, 8:00 PM)
Average38 °F68%29.33 "Hg
* Reported Feb 18 12:00 Noon — Mar 5 12:00 Noon, Hommelvik, Weather by CustomWeather, © 2015

Note: Actual official high and low records may vary slightly from our data, if they occured in-between our weather recording intervals... More about our weather records

Advertising

Hommelvik weather history for previous 24 hours

 ConditionsComfort  
Time TempWeatherWind HumidityBarometerVisibility
12:00 PM
Thu, Mar 5
38 °FPassing clouds.7 mph47%30.06 "Hg31 mi
11:00 AM37 °FScattered clouds.6 mph52%30.09 "Hg31 mi
10:00 AM36 °FPassing clouds.1 mph54%30.12 "Hg31 mi
9:00 AM32 °FSunny.1 mph76%30.14 "Hg25 mi
8:00 AM31 °FPassing clouds.3 mph82%30.15 "Hg31 mi
7:00 AM33 °FPassing clouds.5 mph69%30.15 "Hg31 mi
6:00 AM33 °FChilly.3 mph69%30.16 "Hg31 mi
5:00 AM34 °FChilly.2 mph69%30.15 "Hg31 mi
3:00 AM32 °FChilly.1 mph82%30.13 "Hg31 mi
2:00 AM31 °FChilly.2 mph89%30.12 "Hg31 mi
1:00 AM31 °FPassing clouds.3 mph90%30.09 "Hg31 mi
12:00 AM31 °FClear.1 mph88%30.06 "Hg31 mi
11:00 PM
Wed, Mar 4
32 °FChilly.1 mph84%30.03 "Hg31 mi
9:00 PM36 °FRain showers. Overcast.2 mph80%29.99 "Hg31 mi
8:00 PM36 °FPassing clouds.6 mph78%29.98 "Hg31 mi
7:00 PM36 °FPassing clouds.3 mph75%29.96 "Hg31 mi
6:00 PM38 °FOvercast.7 mph73%29.93 "Hg31 mi
5:00 PM39 °FRain showers. Overcast.12 mph75%29.90 "Hg22 mi
4:00 PM40 °FOvercast.5 mph67%29.88 "Hg31 mi
3:00 PM40 °FPartly sunny.2 mph61%29.86 "Hg25 mi
2:00 PM40 °FOvercast.No wind56%29.84 "Hg28 mi
1:00 PM37 °FScattered clouds.1 mph63%29.83 "Hg25 mi
Weather by CustomWeather, © 2015

See weather overviewHow to use our weather pages